Weather History for Fort Payne, AL

Change the Weather History Date:

Wednesday, December 5, 2012

  Actual Average (KRMG) Record (KRMG)
Temperature  
Mean Temperature 55 °F 45 °F  
Max Temperature 60 °F 55 °F 75 °F (1998)
Min Temperature 50 °F 34 °F 19 °F (2006)
Degree Days  
Heating Degree Days 10 20  
Month to date heating degree days 99  
Since 1 July heating degree days 706  
Growing Degree Days 5 (Base 50)    
Moisture  
Dew Point 51 °F    
Average Humidity 83    
Maximum Humidity 94    
Minimum Humidity 63    
Precipitation  
Precipitation 0.29 in 0.19 in 1.14 in (2002)
Month to date precipitation 0.94  
Snow  
Snow 0.00 in - - ()
Month to date snowfall  
Since 1 July snowfall  
Snow Depth -    
Sea Level Pressure  
Sea Level Pressure 30.18 in    
Wind  
Wind Speed 1 mph (NE)    
Max Wind Speed 9 mph    
Max Gust Speed -    
Visibility 8 miles    
Events Fog , Rain    
T = Trace of Precipitation, MM = Missing Value Source: NWS Daily Summary

Daily Weather History Graph

Daily Weather History Graph

Search for Another Location

Airport:

Trip Planner

Search our weather history database for the weather conditions in past years. The results will help you decide how hot, cold, wet, or windy it might be!

Date:

Astronomy

Dec. 05, 2012 Rise Set
Actual Time 6:35 AM CST 4:32 PM CST
Civil Twilight 6:07 AM CST 5:00 PM CST
Nautical Twilight 5:36 AM CST 5:31 PM CST
Astronomical Twilight 5:05 AM CST 6:01 PM CST
Moon 11:08 PM CST (12/5) 11:09 AM CST (12/5)
Length of Visible Light 10h 52m
Length of Day
9h 57m
Waning Gibbous, 59% of the Moon is Illuminated
Dec 5
Waning Gibbous
Dec 6
Last Quarter
Dec 13
New
Dec 19
First Quarter
Dec 28
Full

Hourly Weather History & Observations

Time (CST) Temp. Dew Point Humidity Pressure Visibility Wind Dir Wind Speed Gust Speed Precip Events Conditions
12:15 AM 57.2 °F 55.4 °F 94% 30.17 in 0.2 mi Calm Calm - N/A Fog Fog
12:35 AM 57.2 °F 55.4 °F 94% 30.17 in 0.2 mi Calm Calm - N/A Fog Fog
12:55 AM 55.4 °F 53.6 °F 94% 30.18 in 0.5 mi Calm Calm - N/A Fog Fog
1:15 AM 55.4 °F 53.6 °F 94% 30.18 in 1.2 mi Calm Calm - N/A   Overcast
1:35 AM 55.4 °F 53.6 °F 94% 30.19 in 1.0 mi Calm Calm - N/A   Overcast
1:55 AM 57.2 °F 55.4 °F 94% 30.18 in 4.0 mi Calm Calm - N/A   Overcast
2:15 AM 57.2 °F 55.4 °F 94% 30.18 in 3.0 mi Calm Calm - N/A   Light Drizzle
2:35 AM 59.0 °F 55.4 °F 88% 30.17 in 4.0 mi Calm Calm - N/A   Overcast
2:55 AM 57.2 °F 55.4 °F 94% 30.17 in 3.0 mi Calm Calm - 0.01 in Rain Rain
3:15 AM 57.2 °F 55.4 °F 94% 30.17 in 2.0 mi Calm Calm - N/A   Heavy Drizzle
3:35 AM 57.2 °F 55.4 °F 94% 30.18 in 2.5 mi Calm Calm - 0.01 in Rain Rain
3:55 AM 57.2 °F 55.4 °F 94% 30.17 in 2.5 mi Calm Calm - 0.02 in   Overcast
4:15 AM 57.2 °F 55.4 °F 94% 30.17 in 1.2 mi Calm Calm - N/A   Overcast
4:35 AM 57.2 °F 55.4 °F 94% 30.18 in 1.0 mi Calm Calm - N/A Rain Rain
4:55 AM 57.2 °F 55.4 °F 94% 30.18 in 4.0 mi Calm Calm - N/A Rain Rain
5:15 AM 57.2 °F 55.4 °F 94% 30.19 in 7.0 mi Calm Calm - N/A   Overcast
5:35 AM 57.2 °F 55.4 °F 94% 30.20 in 3.0 mi Calm Calm - 0.05 in Rain Rain
5:55 AM 55.4 °F 53.6 °F 94% 30.20 in 5.0 mi Calm Calm - 0.08 in Rain Rain
6:15 AM 55.4 °F 53.6 °F 94% 30.20 in 4.0 mi Calm Calm - 0.03 in Rain Light Rain
6:35 AM 55.4 °F 53.6 °F 94% 30.21 in 3.0 mi Calm Calm - 0.09 in Rain Heavy Rain
6:55 AM 55.4 °F 53.6 °F 94% 30.21 in 2.5 mi Calm Calm - 0.17 in Rain Heavy Rain
8:35 AM 57.2 °F 55.4 °F 94% 30.23 in 4.0 mi Calm Calm - N/A   Light Drizzle
8:55 AM 57.2 °F 55.4 °F 94% 30.24 in 10.0 mi Calm Calm - 0.01 in   Overcast
9:15 AM 57.2 °F 55.4 °F 94% 30.25 in 10.0 mi Calm Calm - N/A   Overcast
9:35 AM 59.0 °F 55.4 °F 88% 30.24 in 7.0 mi Calm Calm - N/A   Light Drizzle
9:55 AM 59.0 °F 55.4 °F 88% 30.24 in 10.0 mi Calm Calm - N/A   Overcast
10:15 AM 59.0 °F 55.4 °F 88% 30.23 in 10.0 mi Calm Calm - N/A   Overcast
10:35 AM 59.0 °F 57.2 °F 94% 30.23 in 10.0 mi Calm Calm - N/A   Overcast
10:55 AM 59.0 °F 57.2 °F 94% 30.22 in 7.0 mi Calm Calm - N/A Rain Light Rain
11:15 AM 60.8 °F 55.4 °F 82% 30.21 in 10.0 mi Calm Calm - N/A   Overcast
11:35 AM 59.0 °F 55.4 °F 88% 30.20 in 10.0 mi NNE 9.2 mph - N/A   Overcast
11:55 AM 59.0 °F 53.6 °F 82% 30.20 in 10.0 mi NNE 6.9 mph - N/A   Overcast
12:15 PM 59.0 °F 53.6 °F 82% 30.19 in 10.0 mi NE 5.8 mph - N/A   Overcast
12:35 PM 59.0 °F 53.6 °F 82% 30.18 in 10.0 mi NNE 4.6 mph - N/A   Overcast
12:55 PM 60.8 °F 53.6 °F 77% 30.17 in 10.0 mi NNE 4.6 mph - N/A   Overcast
1:15 PM 60.8 °F 53.6 °F 77% 30.17 in 10.0 mi NNE 5.8 mph - N/A   Overcast
1:35 PM 60.8 °F 53.6 °F 77% 30.16 in 10.0 mi NE 4.6 mph - N/A   Overcast
1:55 PM 60.8 °F 53.6 °F 77% 30.15 in 10.0 mi NE 4.6 mph - N/A   Overcast
2:15 PM 60.8 °F 53.6 °F 77% 30.15 in 10.0 mi NE 4.6 mph - N/A   Overcast
2:35 PM 60.8 °F 53.6 °F 77% 30.16 in 10.0 mi NE 5.8 mph - N/A   Overcast
2:55 PM 60.8 °F 51.8 °F 72% 30.16 in 10.0 mi NE 6.9 mph - N/A   Overcast
3:15 PM 59.0 °F 50.0 °F 72% 30.16 in 10.0 mi NE 6.9 mph - N/A   Overcast
3:35 PM 59.0 °F 50.0 °F 72% 30.16 in 10.0 mi NE 8.1 mph - N/A   Overcast
3:55 PM 59.0 °F 48.2 °F 67% 30.16 in 10.0 mi NE 5.8 mph - N/A   Overcast
4:15 PM 57.2 °F 46.4 °F 67% 30.16 in 10.0 mi NNE 6.9 mph - N/A   Overcast
4:35 PM 57.2 °F 46.4 °F 67% 30.16 in 10.0 mi NE 5.8 mph - N/A   Overcast
4:55 PM 55.4 °F 44.6 °F 67% 30.16 in 10.0 mi NE 5.8 mph - N/A   Overcast
5:15 PM 55.4 °F 42.8 °F 63% 30.16 in 10.0 mi NE 5.8 mph - N/A   Overcast
5:35 PM 55.4 °F 42.8 °F 63% 30.16 in 10.0 mi Calm Calm - N/A   Overcast
5:55 PM 55.4 °F 42.8 °F 63% 30.16 in 10.0 mi East 3.5 mph - N/A   Overcast
6:15 PM 55.4 °F 42.8 °F 63% 30.16 in 10.0 mi Calm Calm - N/A   Overcast
6:35 PM 53.6 °F 44.6 °F 72% 30.17 in 10.0 mi Calm Calm - N/A   Overcast
6:55 PM 53.6 °F 44.6 °F 72% 30.18 in 10.0 mi Calm Calm - N/A   Overcast
7:15 PM 53.6 °F 46.4 °F 77% 30.18 in 10.0 mi Calm Calm - N/A   Overcast
7:35 PM 53.6 °F 46.4 °F 77% 30.17 in 10.0 mi Calm Calm - N/A   Overcast
7:55 PM 53.6 °F 46.4 °F 77% 30.17 in 10.0 mi Calm Calm - N/A   Overcast
8:15 PM 53.6 °F 46.4 °F 77% 30.16 in 10.0 mi Calm Calm - N/A   Light Drizzle
8:35 PM 51.8 °F 46.4 °F 82% 30.16 in 10.0 mi Calm Calm - N/A   Scattered Clouds
8:55 PM 50.0 °F 44.6 °F 82% 30.15 in 10.0 mi Calm Calm - N/A   Scattered Clouds
9:15 PM 50.0 °F 44.6 °F 82% 30.15 in 10.0 mi Calm Calm - N/A   Mostly Cloudy
9:35 PM 50.0 °F 44.6 °F 82% 30.14 in 10.0 mi Calm Calm - N/A   Overcast
9:55 PM 50.0 °F 44.6 °F 82% 30.14 in 10.0 mi Calm Calm - N/A   Overcast
10:15 PM 50.0 °F 44.6 °F 82% 30.13 in 10.0 mi Calm Calm - N/A   Overcast
10:35 PM 50.0 °F 44.6 °F 82% 30.13 in 10.0 mi Calm Calm - N/A   Overcast
10:55 PM 50.0 °F 44.6 °F 82% 30.12 in 10.0 mi Calm Calm - N/A   Overcast
11:15 PM 50.0 °F 44.6 °F 82% 30.13 in 10.0 mi Calm Calm - N/A   Overcast